Time,TemperatureF,DewpointF,PressureIn,WindDirection,WindDirectionDegrees,WindSpeedMPH,WindSpeedGustMPH,Humidity,HourlyPrecipIn,Conditions,Clouds,dailyrainin,SoftwareType,DateUTC
2013-06-25 00:03:00,76.0,66.0,26.67,SSE,168,19.0,23.0,71,0.00,,,-99.99,,2013-06-25 05:03:00,
2013-06-25 00:08:00,77.0,66.0,26.66,South,178,17.0,22.0,70,0.00,,,-99.99,,2013-06-25 05:08:00,
2013-06-25 00:13:00,77.0,64.0,26.66,South,178,19.0,23.0,66,0.00,,,-99.99,,2013-06-25 05:13:00,
2013-06-25 00:18:00,77.0,68.0,26.66,South,180,19.0,23.0,75,0.00,,,-99.99,,2013-06-25 05:18:00,
2013-06-25 00:28:00,77.0,66.0,26.66,South,185,21.0,26.0,68,0.00,,,-99.99,,2013-06-25 05:28:00,
2013-06-25 00:38:00,77.0,63.0,26.65,South,176,20.0,29.0,61,0.00,,,-99.99,,2013-06-25 05:38:00,
2013-06-25 00:43:00,77.0,64.0,26.65,South,185,23.0,26.0,64,0.00,,,-99.99,,2013-06-25 05:43:00,
2013-06-25 00:48:00,77.0,63.0,26.65,South,182,21.0,23.0,62,0.00,,,-99.99,,2013-06-25 05:48:00,
2013-06-25 00:53:00,77.0,63.0,26.65,South,173,22.0,27.0,62,0.00,,,-99.99,,2013-06-25 05:53:00,
2013-06-25 00:58:00,77.0,63.0,26.65,SSW,195,22.0,27.0,62,0.00,,,-99.99,,2013-06-25 05:58:00,
2013-06-25 01:08:00,76.0,63.0,26.65,SSE,168,22.0,27.0,64,0.00,,,-99.99,,2013-06-25 06:08:00,
2013-06-25 01:13:00,76.0,63.0,26.64,South,175,22.0,27.0,64,0.00,,,-99.99,,2013-06-25 06:13:00,
2013-06-25 01:23:00,76.0,63.0,26.64,South,176,21.0,26.0,63,0.00,,,-99.99,,2013-06-25 06:23:00,
2013-06-25 01:38:00,75.0,61.0,26.63,South,169,21.0,25.0,63,0.00,,,-99.99,,2013-06-25 06:38:00,
2013-06-25 01:43:00,75.0,63.0,26.63,South,172,21.0,26.0,67,0.00,,,-99.99,,2013-06-25 06:43:00,
2013-06-25 01:48:00,75.0,64.0,26.63,South,175,20.0,24.0,69,0.00,,,-99.99,,2013-06-25 06:48:00,
2013-06-25 01:53:00,75.0,63.0,26.63,South,179,18.0,23.0,65,0.00,,,-99.99,,2013-06-25 06:53:00,
2013-06-25 01:58:00,75.0,63.0,26.63,South,176,19.0,24.0,64,0.00,,,-99.99,,2013-06-25 06:58:00,
2013-06-25 02:03:00,74.0,63.0,26.63,South,189,20.0,26.0,67,0.00,,,-99.99,,2013-06-25 07:03:00,
2013-06-25 02:08:00,74.0,64.0,26.63,South,188,17.0,21.0,73,0.00,,,-99.99,,2013-06-25 07:08:00,
2013-06-25 02:18:00,74.0,64.0,26.63,South,175,19.0,21.0,74,0.00,,,-99.99,,2013-06-25 07:18:00,
2013-06-25 02:23:00,74.0,64.0,26.63,South,183,18.0,22.0,73,0.00,,,-99.99,,2013-06-25 07:23:00,
2013-06-25 02:33:00,73.0,64.0,26.63,South,182,15.0,17.0,73,0.00,,,-99.99,,2013-06-25 07:33:00,
2013-06-25 02:38:00,73.0,64.0,26.63,South,175,13.0,16.0,75,0.00,,,-99.99,,2013-06-25 07:38:00,
2013-06-25 02:48:00,72.0,64.0,26.63,South,179,15.0,18.0,76,0.00,,,-99.99,,2013-06-25 07:48:00,
2013-06-25 02:53:00,72.0,64.0,26.63,South,169,14.0,17.0,76,0.00,,,-99.99,,2013-06-25 07:53:00,
2013-06-25 02:58:00,72.0,64.0,26.63,SSE,165,14.0,18.0,78,0.00,,,-99.99,,2013-06-25 07:58:00,
2013-06-25 03:03:00,72.0,64.0,26.63,SSE,168,14.0,18.0,76,0.00,,,-99.99,,2013-06-25 08:03:00,
2013-06-25 03:08:00,72.0,64.0,26.63,SSE,164,12.0,15.0,76,0.00,,,-99.99,,2013-06-25 08:08:00,
2013-06-25 03:18:00,72.0,64.0,26.63,SSE,154,12.0,14.0,77,0.00,,,-99.99,,2013-06-25 08:18:00,
2013-06-25 03:23:00,71.0,64.0,26.63,South,173,11.0,14.0,78,0.00,,,-99.99,,2013-06-25 08:23:00,
2013-06-25 03:33:00,71.0,64.0,26.63,SE,138,11.0,15.0,78,0.00,,,-99.99,,2013-06-25 08:33:00,
2013-06-25 03:38:00,71.0,64.0,26.63,SSE,157,13.0,15.0,78,0.00,,,-99.99,,2013-06-25 08:38:00,
2013-06-25 03:48:00,71.0,64.0,26.63,SSE,154,13.0,17.0,79,0.00,,,-99.99,,2013-06-25 08:48:00,
2013-06-25 03:53:00,71.0,64.0,26.63,SSE,155,12.0,14.0,79,0.00,,,-99.99,,2013-06-25 08:53:00,
2013-06-25 04:03:00,70.0,63.0,26.62,SE,142,12.0,13.0,79,0.00,,,-99.99,,2013-06-25 09:03:00,
2013-06-25 04:08:00,70.0,64.0,26.63,SSE,159,9.0,12.0,81,0.00,,,-99.99,,2013-06-25 09:08:00,
2013-06-25 04:18:00,70.0,64.0,26.64,East,97,2.0,3.0,82,0.00,,,-99.99,,2013-06-25 09:18:00,
2013-06-25 04:23:00,70.0,64.0,26.64,SE,133,6.0,7.0,82,0.00,,,-99.99,,2013-06-25 09:23:00,
2013-06-25 04:33:00,69.0,64.0,26.64,North,358,10.0,10.0,85,0.00,,,-99.99,,2013-06-25 09:33:00,
2013-06-25 04:38:00,68.0,63.0,26.64,North,357,9.0,10.0,84,0.00,,,-99.99,,2013-06-25 09:38:00,
2013-06-25 05:03:00,66.0,63.0,26.63,ENE,73,7.0,8.0,89,0.00,,,-99.99,,2013-06-25 10:03:00,
2013-06-25 05:08:00,66.0,63.0,26.63,East,89,7.0,7.0,88,0.00,,,-99.99,,2013-06-25 10:08:00,
2013-06-25 05:13:00,66.0,63.0,26.63,East,79,7.0,7.0,89,0.00,,,-99.99,,2013-06-25 10:13:00,
2013-06-25 05:23:00,66.0,63.0,26.63,East,92,8.0,9.0,89,0.00,,,-99.99,,2013-06-25 10:23:00,
2013-06-25 05:28:00,66.0,63.0,26.63,East,89,8.0,8.0,90,0.00,,,-99.99,,2013-06-25 10:28:00,
2013-06-25 05:33:00,66.0,63.0,26.63,East,80,7.0,7.0,89,0.00,,,-99.99,,2013-06-25 10:33:00,
2013-06-25 05:38:00,66.0,63.0,26.63,East,92,6.0,6.0,89,0.00,,,-99.99,,2013-06-25 10:38:00,
2013-06-25 05:53:00,66.0,63.0,26.63,East,83,7.0,7.0,90,0.00,,,-99.99,,2013-06-25 10:53:00,
2013-06-25 05:58:00,66.0,63.0,26.63,East,80,6.0,7.0,90,0.00,,,-99.99,,2013-06-25 10:58:00,
2013-06-25 06:03:00,66.0,63.0,26.63,East,86,8.0,8.0,90,0.00,,,-99.99,,2013-06-25 11:03:00,
2013-06-25 06:13:00,66.0,63.0,26.63,East,79,6.0,6.0,90,0.00,,,-99.99,,2013-06-25 11:13:00,
2013-06-25 06:18:00,66.0,63.0,26.63,East,96,6.0,6.0,90,0.00,,,-99.99,,2013-06-25 11:18:00,
2013-06-25 06:23:00,66.0,63.0,26.64,East,93,5.0,5.0,90,0.00,,,-99.99,,2013-06-25 11:23:00,
2013-06-25 06:28:00,67.0,64.0,26.64,ESE,103,6.0,6.0,90,0.00,,,-99.99,,2013-06-25 11:28:00,
2013-06-25 06:33:00,67.0,64.0,26.64,East,100,7.0,7.0,90,0.00,,,-99.99,,2013-06-25 11:33:00,
2013-06-25 06:43:00,67.0,64.0,26.63,East,94,8.0,8.0,90,0.00,,,-99.99,,2013-06-25 11:43:00,
2013-06-25 06:48:00,67.0,64.0,26.63,East,94,6.0,7.0,90,0.00,,,-99.99,,2013-06-25 11:48:00,
2013-06-25 07:03:00,67.0,64.0,26.63,East,87,6.0,6.0,90,0.00,,,-99.99,,2013-06-25 12:03:00,
2013-06-25 07:08:00,67.0,64.0,26.63,East,87,6.0,6.0,90,0.00,,,-99.99,,2013-06-25 12:08:00,
2013-06-25 07:18:00,68.0,66.0,26.63,ENE,61,6.0,7.0,92,0.00,,,-99.99,,2013-06-25 12:18:00,
2013-06-25 07:23:00,68.0,66.0,26.64,ENE,58,6.0,7.0,92,0.00,,,-99.99,,2013-06-25 12:23:00,
2013-06-25 07:33:00,69.0,66.0,26.64,North,8,5.0,5.0,92,0.00,,,-99.99,,2013-06-25 12:33:00,
2013-06-25 07:38:00,69.0,66.0,26.64,North,4,4.0,5.0,92,0.00,,,-99.99,,2013-06-25 12:38:00,
2013-06-25 07:48:00,69.0,66.0,26.64,North,11,6.0,6.0,92,0.00,,,-99.99,,2013-06-25 12:48:00,
2013-06-25 07:53:00,69.0,66.0,26.64,NE,45,5.0,6.0,92,0.00,,,-99.99,,2013-06-25 12:53:00,
2013-06-25 08:03:00,69.0,66.0,26.65,North,8,4.0,5.0,91,0.00,,,-99.99,,2013-06-25 13:03:00,
2013-06-25 08:08:00,70.0,66.0,26.65,North,351,5.0,5.0,90,0.00,,,-99.99,,2013-06-25 13:08:00,
2013-06-25 08:18:00,70.0,64.0,26.66,North,351,3.0,4.0,81,0.00,,,-99.99,,2013-06-25 13:18:00,
2013-06-25 08:23:00,71.0,64.0,26.66,NNW,348,4.0,5.0,79,0.00,,,-99.99,,2013-06-25 13:23:00,
2013-06-25 08:28:00,71.0,64.0,26.66,NW,307,5.0,6.0,79,0.00,,,-99.99,,2013-06-25 13:28:00,
2013-06-25 08:33:00,71.0,64.0,26.66,NW,319,5.0,6.0,79,0.00,,,-99.99,,2013-06-25 13:33:00,
2013-06-25 08:38:00,71.0,64.0,26.67,WNW,303,5.0,6.0,78,0.00,,,-99.99,,2013-06-25 13:38:00,
2013-06-25 08:48:00,72.0,64.0,26.68,WNW,302,5.0,5.0,77,0.00,,,-99.99,,2013-06-25 13:48:00,
2013-06-25 08:53:00,72.0,64.0,26.68,NW,306,5.0,6.0,78,0.00,,,-99.99,,2013-06-25 13:53:00,
2013-06-25 08:58:00,72.0,66.0,26.68,NW,313,6.0,8.0,82,0.00,,,-99.99,,2013-06-25 13:58:00,
2013-06-25 09:03:00,72.0,66.0,26.68,NW,309,8.0,8.0,80,0.00,,,-99.99,,2013-06-25 14:03:00,
2013-06-25 09:13:00,73.0,66.0,26.68,WNW,303,8.0,9.0,80,0.00,,,-99.99,,2013-06-25 14:13:00,
2013-06-25 09:23:00,74.0,66.0,26.69,NW,317,7.0,8.0,79,0.00,,,-99.99,,2013-06-25 14:23:00,
2013-06-25 09:28:00,74.0,68.0,26.69,NW,313,9.0,10.0,81,0.00,,,-99.99,,2013-06-25 14:28:00,
2013-06-25 09:38:00,74.0,66.0,26.69,NW,316,8.0,9.0,76,0.00,,,-99.99,,2013-06-25 14:38:00,
2013-06-25 09:43:00,75.0,68.0,26.70,NW,306,7.0,9.0,77,0.00,,,-99.99,,2013-06-25 14:43:00,
2013-06-25 09:53:00,75.0,66.0,26.70,WNW,295,7.0,9.0,73,0.00,,,-99.99,,2013-06-25 14:53:00,
2013-06-25 09:58:00,75.0,66.0,26.70,WNW,293,9.0,10.0,73,0.00,,,-99.99,,2013-06-25 14:58:00,
2013-06-25 10:08:00,76.0,68.0,26.70,NW,305,7.0,9.0,75,0.00,,,-99.99,,2013-06-25 15:08:00,
2013-06-25 10:13:00,77.0,68.0,26.70,NW,314,8.0,9.0,76,0.00,,,-99.99,,2013-06-25 15:13:00,
2013-06-25 10:23:00,77.0,68.0,26.70,NW,307,9.0,11.0,76,0.00,,,-99.99,,2013-06-25 15:23:00,
2013-06-25 10:28:00,77.0,70.0,26.70,NW,310,9.0,11.0,77,0.00,,,-99.99,,2013-06-25 15:28:00,
2013-06-25 10:38:00,79.0,72.0,26.70,WNW,299,10.0,12.0,76,0.00,,,-99.99,,2013-06-25 15:38:00,
2013-06-25 10:43:00,79.0,70.0,26.70,NW,309,11.0,13.0,74,0.00,,,-99.99,,2013-06-25 15:43:00,
2013-06-25 10:53:00,80.0,70.0,26.70,NNW,337,13.0,15.0,73,0.00,,,-99.99,,2013-06-25 15:53:00,
2013-06-25 10:58:00,80.0,70.0,26.70,NNW,343,14.0,16.0,71,0.00,,,-99.99,,2013-06-25 15:58:00,
2013-06-25 11:08:00,80.0,70.0,26.70,NNW,347,13.0,15.0,71,0.00,,,-99.99,,2013-06-25 16:08:00,
2013-06-25 11:13:00,81.0,72.0,26.70,NNW,331,13.0,18.0,72,0.00,,,-99.99,,2013-06-25 16:13:00,
2013-06-25 11:23:00,82.0,72.0,26.71,NNW,341,15.0,18.0,69,0.00,,,-99.99,,2013-06-25 16:23:00,
2013-06-25 11:28:00,82.0,70.0,26.71,NNW,336,16.0,19.0,67,0.00,,,-99.99,,2013-06-25 16:28:00,
2013-06-25 11:38:00,83.0,72.0,26.71,NW,324,15.0,17.0,68,0.00,,,-99.99,,2013-06-25 16:38:00,
2013-06-25 11:48:00,84.0,72.0,26.71,NNW,331,18.0,21.0,65,0.00,,,-99.99,,2013-06-25 16:48:00,
2013-06-25 11:53:00,84.0,70.0,26.71,NNW,331,17.0,20.0,64,0.00,,,-99.99,,2013-06-25 16:53:00,
2013-06-25 12:03:00,84.0,68.0,26.71,NW,323,17.0,20.0,60,0.00,,,-99.99,,2013-06-25 17:03:00,
2013-06-25 12:08:00,85.0,70.0,26.71,NNW,347,17.0,20.0,60,0.00,,,-99.99,,2013-06-25 17:08:00,
2013-06-25 12:18:00,86.0,70.0,26.72,NNW,329,17.0,21.0,58,0.00,,,-99.99,,2013-06-25 17:18:00,
2013-06-25 12:23:00,86.0,68.0,26.72,NNW,337,17.0,20.0,55,0.00,,,-99.99,,2013-06-25 17:23:00,
2013-06-25 12:33:00,87.0,68.0,26.72,NNE,13,15.0,17.0,55,0.00,,,-99.99,,2013-06-25 17:33:00,
2013-06-25 12:38:00,87.0,66.0,26.72,NNW,343,18.0,22.0,50,0.00,,,-99.99,,2013-06-25 17:38:00,
2013-06-25 12:43:00,88.0,63.0,26.72,NW,321,20.0,25.0,44,0.00,,,-99.99,,2013-06-25 17:43:00,
2013-06-25 12:48:00,89.0,64.0,26.72,NNW,343,19.0,24.0,45,0.00,,,-99.99,,2013-06-25 17:48:00,
2013-06-25 12:53:00,89.0,61.0,26.72,NW,316,19.0,23.0,40,0.00,,,-99.99,,2013-06-25 17:53:00,
2013-06-25 13:03:00,90.0,61.0,26.72,NW,324,22.0,26.0,38,0.00,,,-99.99,,2013-06-25 18:03:00,
2013-06-25 13:08:00,90.0,59.0,26.72,NNW,329,21.0,24.0,36,0.00,,,-99.99,,2013-06-25 18:08:00,
2013-06-25 13:18:00,91.0,59.0,26.72,NNW,341,19.0,23.0,34,0.00,,,-99.99,,2013-06-25 18:18:00,
2013-06-25 13:33:00,91.0,59.0,26.72,NNW,334,17.0,21.0,35,0.00,,,-99.99,,2013-06-25 18:33:00,
2013-06-25 13:43:00,91.0,55.0,26.72,NW,312,15.0,21.0,31,0.00,,,-99.99,,2013-06-25 18:43:00,
2013-06-25 13:48:00,91.0,57.0,26.72,NNW,333,17.0,23.0,32,0.00,,,-99.99,,2013-06-25 18:48:00,
2013-06-25 13:58:00,92.0,55.0,26.73,NNW,347,18.0,22.0,30,0.00,,,-99.99,,2013-06-25 18:58:00,
2013-06-25 14:13:00,92.0,55.0,26.73,NNW,344,18.0,23.0,30,0.00,,,-99.99,,2013-06-25 19:13:00,
2013-06-25 14:23:00,92.0,57.0,26.73,NNW,341,17.0,20.0,32,0.00,,,-99.99,,2013-06-25 19:23:00,
2013-06-25 14:28:00,93.0,57.0,26.73,NNW,336,23.0,26.0,31,0.00,,,-99.99,,2013-06-25 19:28:00,
2013-06-25 14:38:00,92.0,57.0,26.73,NNW,344,17.0,21.0,31,0.00,,,-99.99,,2013-06-25 19:38:00,
2013-06-25 14:43:00,92.0,59.0,26.73,NW,319,18.0,24.0,34,0.00,,,-99.99,,2013-06-25 19:43:00,
2013-06-25 14:48:00,92.0,61.0,26.73,NW,317,18.0,21.0,35,0.00,,,-99.99,,2013-06-25 19:48:00,
2013-06-25 14:53:00,92.0,59.0,26.73,NNW,336,20.0,23.0,34,0.00,,,-99.99,,2013-06-25 19:53:00,
2013-06-25 14:58:00,92.0,61.0,26.73,NNW,331,18.0,23.0,36,0.00,,,-99.99,,2013-06-25 19:58:00,
2013-06-25 15:03:00,92.0,59.0,26.73,NNW,330,17.0,20.0,34,0.00,,,-99.99,,2013-06-25 20:03:00,
2013-06-25 15:08:00,92.0,61.0,26.73,NNW,337,19.0,23.0,35,0.00,,,-99.99,,2013-06-25 20:08:00,
2013-06-25 15:18:00,92.0,59.0,26.73,NW,324,17.0,24.0,33,0.00,,,-99.99,,2013-06-25 20:18:00,
2013-06-25 15:28:00,92.0,57.0,26.73,NNW,331,18.0,21.0,31,0.00,,,-99.99,,2013-06-25 20:28:00,
2013-06-25 15:33:00,92.0,55.0,26.73,NW,324,16.0,19.0,30,0.00,,,-99.99,,2013-06-25 20:33:00,
2013-06-25 15:43:00,93.0,57.0,26.74,NNW,336,16.0,19.0,31,0.00,,,-99.99,,2013-06-25 20:43:00,
2013-06-25 15:48:00,93.0,55.0,26.73,NNW,344,16.0,20.0,29,0.00,,,-99.99,,2013-06-25 20:48:00,
2013-06-25 15:58:00,92.0,55.0,26.74,NW,324,13.0,15.0,30,0.00,,,-99.99,,2013-06-25 20:58:00,
2013-06-25 16:03:00,92.0,57.0,26.74,NW,320,14.0,20.0,31,0.00,,,-99.99,,2013-06-25 21:03:00,
2013-06-25 16:13:00,93.0,55.0,26.73,North,6,12.0,15.0,28,0.00,,,-99.99,,2013-06-25 21:13:00,
2013-06-25 16:23:00,93.0,55.0,26.73,NNW,338,15.0,16.0,28,0.00,,,-99.99,,2013-06-25 21:23:00,
2013-06-25 16:28:00,93.0,54.0,26.73,NNW,347,14.0,18.0,27,0.00,,,-99.99,,2013-06-25 21:28:00,
2013-06-25 16:38:00,93.0,54.0,26.73,NNW,333,13.0,16.0,26,0.00,,,-99.99,,2013-06-25 21:38:00,
2013-06-25 16:43:00,93.0,54.0,26.73,NNW,344,14.0,17.0,27,0.00,,,-99.99,,2013-06-25 21:43:00,
2013-06-25 16:48:00,93.0,52.0,26.73,NNW,337,11.0,14.0,25,0.00,,,-99.99,,2013-06-25 21:48:00,
2013-06-25 16:53:00,93.0,54.0,26.73,NNW,343,11.0,15.0,27,0.00,,,-99.99,,2013-06-25 21:53:00,
2013-06-25 16:58:00,93.0,54.0,26.73,NW,323,11.0,14.0,27,0.00,,,-99.99,,2013-06-25 21:58:00,
2013-06-25 17:03:00,93.0,54.0,26.73,NNW,336,15.0,16.0,27,0.00,,,-99.99,,2013-06-25 22:03:00,
2013-06-25 17:08:00,94.0,54.0,26.73,NNW,337,16.0,18.0,25,0.00,,,-99.99,,2013-06-25 22:08:00,
2013-06-25 17:13:00,94.0,54.0,26.73,NW,317,17.0,21.0,25,0.00,,,-99.99,,2013-06-25 22:13:00,
2013-06-25 17:18:00,94.0,50.0,26.73,NNW,348,16.0,18.0,23,0.00,,,-99.99,,2013-06-25 22:18:00,
2013-06-25 17:23:00,95.0,54.0,26.73,NW,309,15.0,18.0,25,0.00,,,-99.99,,2013-06-25 22:23:00,
2013-06-25 17:33:00,95.0,54.0,26.73,NW,314,14.0,16.0,25,0.00,,,-99.99,,2013-06-25 22:33:00,
2013-06-25 17:43:00,95.0,54.0,26.73,NNW,345,12.0,14.0,25,0.00,,,-99.99,,2013-06-25 22:43:00,
2013-06-25 17:48:00,94.0,54.0,26.73,NW,324,11.0,13.0,25,0.00,,,-99.99,,2013-06-25 22:48:00,
2013-06-25 17:58:00,95.0,52.0,26.72,NW,309,17.0,19.0,24,0.00,,,-99.99,,2013-06-25 22:58:00,
2013-06-25 18:03:00,95.0,54.0,26.72,NW,310,17.0,21.0,25,0.00,,,-99.99,,2013-06-25 23:03:00,
2013-06-25 18:13:00,95.0,54.0,26.72,NW,326,15.0,17.0,25,0.00,,,-99.99,,2013-06-25 23:13:00,
2013-06-25 18:23:00,95.0,52.0,26.72,NW,312,15.0,18.0,23,0.00,,,-99.99,,2013-06-25 23:23:00,
2013-06-25 18:33:00,94.0,54.0,26.73,NW,323,14.0,15.0,26,0.00,,,-99.99,,2013-06-25 23:33:00,
2013-06-25 18:38:00,94.0,54.0,26.73,NW,314,15.0,17.0,26,0.00,,,-99.99,,2013-06-25 23:38:00,
2013-06-25 18:43:00,94.0,54.0,26.72,NNW,334,13.0,15.0,25,0.00,,,-99.99,,2013-06-25 23:43:00,
2013-06-25 18:48:00,94.0,52.0,26.73,NNW,337,13.0,17.0,24,0.00,,,-99.99,,2013-06-25 23:48:00,
2013-06-25 18:53:00,94.0,52.0,26.73,NW,323,13.0,17.0,24,0.00,,,-99.99,,2013-06-25 23:53:00,
2013-06-25 18:58:00,94.0,52.0,26.73,NW,324,13.0,16.0,24,0.00,,,-99.99,,2013-06-25 23:58:00,
2013-06-25 19:08:00,94.0,54.0,26.73,NW,316,12.0,14.0,25,0.00,,,-99.99,,2013-06-26 00:08:00,
2013-06-25 19:13:00,94.0,54.0,26.73,NW,316,11.0,13.0,25,0.00,,,-99.99,,2013-06-26 00:13:00,
2013-06-25 19:18:00,94.0,52.0,26.73,NNW,329,13.0,15.0,24,0.00,,,-99.99,,2013-06-26 00:18:00,
2013-06-25 19:23:00,94.0,54.0,26.73,NNW,334,13.0,15.0,25,0.00,,,-99.99,,2013-06-26 00:23:00,
2013-06-25 19:28:00,94.0,54.0,26.73,NNW,341,12.0,14.0,25,0.00,,,-99.99,,2013-06-26 00:28:00,
2013-06-25 19:33:00,93.0,50.0,26.73,North,0,11.0,13.0,24,0.00,,,-99.99,,2013-06-26 00:33:00,
2013-06-25 19:38:00,93.0,54.0,26.73,NNW,344,9.0,11.0,27,0.00,,,-99.99,,2013-06-26 00:38:00,
2013-06-25 19:43:00,93.0,55.0,26.73,North,353,9.0,10.0,28,0.00,,,-99.99,,2013-06-26 00:43:00,
2013-06-25 19:48:00,93.0,55.0,26.74,NNW,341,9.0,11.0,28,0.00,,,-99.99,,2013-06-26 00:48:00,
2013-06-25 19:53:00,92.0,54.0,26.74,NNW,344,9.0,12.0,27,0.00,,,-99.99,,2013-06-26 00:53:00,
2013-06-25 19:58:00,92.0,54.0,26.74,NNW,340,13.0,15.0,28,0.00,,,-99.99,,2013-06-26 00:58:00,
2013-06-25 20:03:00,91.0,54.0,26.74,NNW,334,14.0,17.0,29,0.00,,,-99.99,,2013-06-26 01:03:00,
2013-06-25 20:08:00,90.0,55.0,26.75,North,7,14.0,16.0,31,0.00,,,-99.99,,2013-06-26 01:08:00,
2013-06-25 20:13:00,90.0,57.0,26.75,North,8,12.0,14.0,34,0.00,,,-99.99,,2013-06-26 01:13:00,
2013-06-25 20:18:00,89.0,57.0,26.75,North,6,11.0,13.0,35,0.00,,,-99.99,,2013-06-26 01:18:00,
2013-06-25 20:23:00,88.0,57.0,26.75,North,11,10.0,13.0,36,0.00,,,-99.99,,2013-06-26 01:23:00,
2013-06-25 20:28:00,88.0,57.0,26.75,North,8,11.0,13.0,36,0.00,,,-99.99,,2013-06-26 01:28:00,
2013-06-25 20:38:00,87.0,59.0,26.76,North,6,9.0,10.0,39,0.00,,,-99.99,,2013-06-26 01:38:00,
2013-06-25 20:43:00,86.0,59.0,26.76,NNE,14,9.0,10.0,40,0.00,,,-99.99,,2013-06-26 01:43:00,
2013-06-25 20:48:00,85.0,59.0,26.76,NNE,13,9.0,10.0,42,0.00,,,-99.99,,2013-06-26 01:48:00,
2013-06-25 20:58:00,84.0,61.0,26.76,NNE,23,8.0,9.0,45,0.00,,,-99.99,,2013-06-26 01:58:00,
2013-06-25 21:03:00,83.0,61.0,26.76,NNE,20,8.0,8.0,47,0.00,,,-99.99,,2013-06-26 02:03:00,
2013-06-25 21:08:00,82.0,61.0,26.76,NNE,20,8.0,8.0,48,0.00,,,-99.99,,2013-06-26 02:08:00,
2013-06-25 21:13:00,81.0,61.0,26.76,NNE,17,8.0,8.0,50,0.00,,,-99.99,,2013-06-26 02:13:00,
2013-06-25 21:18:00,80.0,59.0,26.77,NNE,14,7.0,8.0,50,0.00,,,-99.99,,2013-06-26 02:18:00,
2013-06-25 21:23:00,80.0,61.0,26.77,NNE,18,7.0,8.0,52,0.00,,,-99.99,,2013-06-26 02:23:00,
2013-06-25 21:28:00,79.0,61.0,26.77,NNE,23,7.0,8.0,54,0.00,,,-99.99,,2013-06-26 02:28:00,
2013-06-25 21:33:00,79.0,61.0,26.77,NNE,24,7.0,7.0,54,0.00,,,-99.99,,2013-06-26 02:33:00,
2013-06-25 21:38:00,78.0,61.0,26.77,NNE,23,7.0,7.0,54,0.00,,,-99.99,,2013-06-26 02:38:00,
2013-06-25 21:43:00,78.0,61.0,26.77,NNE,23,8.0,8.0,54,0.00,,,-99.99,,2013-06-26 02:43:00,
2013-06-25 21:48:00,78.0,61.0,26.78,NNE,21,8.0,8.0,54,0.00,,,-99.99,,2013-06-26 02:48:00,
2013-06-25 21:53:00,78.0,61.0,26.78,NNE,21,8.0,8.0,55,0.00,,,-99.99,,2013-06-26 02:53:00,
2013-06-25 21:58:00,77.0,61.0,26.78,NNE,21,8.0,8.0,56,0.00,,,-99.99,,2013-06-26 02:58:00,
2013-06-25 22:03:00,76.0,59.0,26.78,NNE,27,9.0,9.0,57,0.00,,,-99.99,,2013-06-26 03:03:00,
2013-06-25 22:08:00,76.0,61.0,26.78,NNE,28,9.0,9.0,58,0.00,,,-99.99,,2013-06-26 03:08:00,
2013-06-25 22:18:00,76.0,61.0,26.78,NNE,32,9.0,9.0,58,0.00,,,-99.99,,2013-06-26 03:18:00,
2013-06-25 22:23:00,75.0,59.0,26.78,NNE,31,9.0,9.0,58,0.00,,,-99.99,,2013-06-26 03:23:00,
2013-06-25 22:33:00,75.0,59.0,26.78,NNE,31,9.0,9.0,58,0.00,,,-99.99,,2013-06-26 03:33:00,
2013-06-25 22:38:00,76.0,59.0,26.79,NNE,32,9.0,9.0,57,0.00,,,-99.99,,2013-06-26 03:38:00,
2013-06-25 22:48:00,75.0,59.0,26.79,NE,35,7.0,7.0,58,0.00,,,-99.99,,2013-06-26 03:48:00,
2013-06-25 22:53:00,75.0,59.0,26.79,NE,39,6.0,6.0,58,0.00,,,-99.99,,2013-06-26 03:53:00,
2013-06-25 22:58:00,75.0,59.0,26.80,South,182,5.0,5.0,57,0.00,,,-99.99,,2013-06-26 03:58:00,
2013-06-25 23:03:00,74.0,59.0,26.80,SSE,157,4.0,5.0,58,0.00,,,-99.99,,2013-06-26 04:03:00,
2013-06-25 23:13:00,73.0,57.0,26.80,SSE,157,4.0,4.0,59,0.00,,,-99.99,,2013-06-26 04:13:00,
2013-06-25 23:18:00,73.0,57.0,26.80,SSE,149,4.0,4.0,59,0.00,,,-99.99,,2013-06-26 04:18:00,
2013-06-25 23:28:00,73.0,57.0,26.80,ESE,114,4.0,4.0,57,0.00,,,-99.99,,2013-06-26 04:28:00,
2013-06-25 23:38:00,73.0,57.0,26.80,South,180,4.0,5.0,56,0.00,,,-99.99,,2013-06-26 04:38:00,
2013-06-25 23:43:00,72.0,55.0,26.80,South,182,4.0,4.0,56,0.00,,,-99.99,,2013-06-26 04:43:00,
2013-06-25 23:48:00,73.0,55.0,26.80,South,180,4.0,4.0,55,0.00,,,-99.99,,2013-06-26 04:48:00,
2013-06-25 23:53:00,73.0,55.0,26.80,South,173,3.0,3.0,55,0.00,,,-99.99,,2013-06-26 04:53:00,
2013-06-25 23:58:00,74.0,55.0,26.80,SSE,161,2.0,3.0,54,0.00,,,-99.99,,2013-06-26 04:58:00,